Time,TemperatureF,DewpointF,PressureIn,WindDirection,WindDirectionDegrees,WindSpeedMPH,WindSpeedGustMPH,Humidity,HourlyPrecipIn,Conditions,Clouds,dailyrainin,SoftwareType,DateUTC
2013-09-19 00:01:00,63.7,59.7,29.84,SSW,205,0.0,0.0,87,0.00,,,0.00,meteohub,2013-09-19 07:01:00,
2013-09-19 00:06:00,63.5,59.2,29.84,SSW,205,0.0,0.0,86,0.00,,,0.00,meteohub,2013-09-19 07:06:00,
2013-09-19 00:11:00,63.3,59.4,29.84,SSW,205,0.0,0.0,87,0.00,,,0.00,meteohub,2013-09-19 07:11:00,
2013-09-19 00:16:00,63.3,59.4,29.84,SSW,205,0.0,0.0,87,0.00,,,0.00,meteohub,2013-09-19 07:16:00,
2013-09-19 00:21:00,63.1,59.2,29.84,SSW,205,0.0,0.0,87,0.00,,,0.00,meteohub,2013-09-19 07:21:00,
2013-09-19 00:26:00,63.1,59.2,29.84,SSW,205,0.0,0.0,87,0.00,,,0.00,meteohub,2013-09-19 07:26:00,
2013-09-19 00:31:00,63.1,59.2,29.84,SSW,205,0.0,0.0,87,0.00,,,0.00,meteohub,2013-09-19 07:31:00,
2013-09-19 00:36:00,63.0,59.0,29.84,SSW,205,0.0,0.0,87,0.00,,,0.00,meteohub,2013-09-19 07:36:00,
2013-09-19 00:41:00,63.0,59.0,29.84,SSW,205,0.0,0.0,87,0.00,,,0.00,meteohub,2013-09-19 07:41:00,
2013-09-19 00:46:00,62.8,58.8,29.84,SSW,205,0.0,0.0,87,0.00,,,0.00,meteohub,2013-09-19 07:46:00,
2013-09-19 00:51:00,62.8,58.8,29.84,SSW,205,0.0,0.0,87,0.00,,,0.00,meteohub,2013-09-19 07:51:00,
2013-09-19 00:56:00,62.6,58.6,29.84,SSW,205,0.0,0.0,87,0.00,,,0.00,meteohub,2013-09-19 07:56:00,
2013-09-19 01:01:00,62.4,58.5,29.84,SSW,205,0.0,0.0,87,0.00,,,0.00,meteohub,2013-09-19 08:01:00,
2013-09-19 01:06:00,62.4,58.8,29.84,SSW,205,0.0,0.0,88,0.00,,,0.00,meteohub,2013-09-19 08:06:00,
2013-09-19 01:11:00,62.2,58.6,29.84,SSW,205,0.0,0.0,88,0.00,,,0.00,meteohub,2013-09-19 08:11:00,
2013-09-19 01:16:00,62.2,58.6,29.84,SSW,205,0.0,0.0,88,0.00,,,0.00,meteohub,2013-09-19 08:16:00,
2013-09-19 01:21:00,62.2,58.6,29.84,SSW,205,0.0,0.0,88,0.00,,,0.00,meteohub,2013-09-19 08:21:00,
2013-09-19 01:26:00,62.1,58.5,29.84,SSW,205,0.0,0.0,88,0.00,,,0.00,meteohub,2013-09-19 08:26:00,
2013-09-19 01:31:00,62.1,58.5,29.84,SSW,205,0.0,0.0,88,0.00,,,0.00,meteohub,2013-09-19 08:31:00,
2013-09-19 01:36:00,62.1,58.8,29.84,SSW,205,0.0,0.0,89,0.00,,,0.00,meteohub,2013-09-19 08:36:00,
2013-09-19 01:41:00,61.9,58.6,29.84,SSW,205,0.0,0.0,89,0.00,,,0.00,meteohub,2013-09-19 08:41:00,
2013-09-19 01:46:00,61.9,58.6,29.84,SSW,205,0.0,0.0,89,0.00,,,0.00,meteohub,2013-09-19 08:46:00,
2013-09-19 01:51:00,61.9,58.6,29.84,SSW,205,0.0,0.0,89,0.00,,,0.00,meteohub,2013-09-19 08:51:00,
2013-09-19 01:56:00,61.7,58.5,29.84,SSW,205,0.0,0.0,89,0.00,,,0.00,meteohub,2013-09-19 08:56:00,
2013-09-19 02:01:00,61.5,58.3,29.84,SSW,205,0.0,0.0,89,0.00,,,0.00,meteohub,2013-09-19 09:01:00,
2013-09-19 02:06:00,61.5,58.3,29.83,SSW,205,0.0,0.0,89,0.00,,,0.00,meteohub,2013-09-19 09:06:00,
2013-09-19 02:11:00,61.3,58.1,29.83,SSW,205,0.0,0.0,89,0.00,,,0.00,meteohub,2013-09-19 09:11:00,
2013-09-19 02:16:00,61.3,58.5,29.83,SSW,205,0.0,0.0,90,0.00,,,0.00,meteohub,2013-09-19 09:16:00,
2013-09-19 02:21:00,61.3,58.1,29.83,SSW,205,0.0,0.0,89,0.00,,,0.00,meteohub,2013-09-19 09:21:00,
2013-09-19 02:26:00,61.2,57.9,29.83,SSW,205,0.0,0.0,89,0.00,,,0.00,meteohub,2013-09-19 09:26:00,
2013-09-19 02:31:00,61.2,57.9,29.83,SSW,205,0.0,0.0,89,0.00,,,0.00,meteohub,2013-09-19 09:31:00,
2013-09-19 02:36:00,61.2,57.9,29.83,SSW,205,0.0,0.0,89,0.00,,,0.00,meteohub,2013-09-19 09:36:00,
2013-09-19 02:41:00,61.0,58.1,29.83,SSW,205,0.0,0.0,90,0.00,,,0.00,meteohub,2013-09-19 09:41:00,
2013-09-19 02:46:00,61.0,58.1,29.83,SSW,205,0.0,0.0,90,0.00,,,0.00,meteohub,2013-09-19 09:46:00,
2013-09-19 02:51:00,61.0,58.1,29.83,SSW,205,0.0,0.0,90,0.00,,,0.00,meteohub,2013-09-19 09:51:00,
2013-09-19 02:56:00,61.0,58.1,29.83,SSW,205,0.0,0.0,90,0.00,,,0.00,meteohub,2013-09-19 09:56:00,
2013-09-19 03:01:00,61.0,58.1,29.83,SSW,205,0.0,0.0,90,0.00,,,0.00,meteohub,2013-09-19 10:01:00,
2013-09-19 03:06:00,61.0,58.1,29.82,SSW,205,0.0,0.0,90,0.00,,,0.00,meteohub,2013-09-19 10:06:00,
2013-09-19 03:11:00,61.0,58.1,29.82,SSW,205,0.0,0.0,90,0.00,,,0.00,meteohub,2013-09-19 10:11:00,
2013-09-19 03:16:00,60.8,57.9,29.82,SSW,205,0.0,0.0,90,0.00,,,0.00,meteohub,2013-09-19 10:16:00,
2013-09-19 03:21:00,60.6,57.7,29.82,SSW,205,0.0,0.0,90,0.00,,,0.00,meteohub,2013-09-19 10:21:00,
2013-09-19 03:26:00,60.6,57.7,29.82,SSW,205,0.0,0.0,90,0.00,,,0.00,meteohub,2013-09-19 10:26:00,
2013-09-19 03:31:00,60.6,57.9,29.82,SSW,205,0.0,0.0,91,0.00,,,0.00,meteohub,2013-09-19 10:31:00,
2013-09-19 03:36:00,60.6,57.9,29.82,SSW,205,0.0,0.0,91,0.00,,,0.00,meteohub,2013-09-19 10:36:00,
2013-09-19 03:41:00,60.6,57.9,29.82,SSW,205,0.0,0.0,91,0.00,,,0.00,meteohub,2013-09-19 10:41:00,
2013-09-19 03:46:00,60.4,57.7,29.82,SSW,205,0.0,0.0,91,0.00,,,0.00,meteohub,2013-09-19 10:46:00,
2013-09-19 03:51:00,60.4,57.7,29.82,SSW,205,0.0,0.0,91,0.00,,,0.00,meteohub,2013-09-19 10:51:00,
2013-09-19 03:56:00,60.4,57.7,29.82,SSW,205,0.0,0.0,91,0.00,,,0.00,meteohub,2013-09-19 10:56:00,
2013-09-19 04:01:00,60.4,57.7,29.82,SSW,205,0.0,0.0,91,0.00,,,0.00,meteohub,2013-09-19 11:01:00,
2013-09-19 04:06:00,60.4,57.7,29.83,SSW,205,0.0,0.0,91,0.00,,,0.00,meteohub,2013-09-19 11:06:00,
2013-09-19 04:11:00,60.4,57.7,29.83,SSW,205,0.0,0.0,91,0.00,,,0.00,meteohub,2013-09-19 11:11:00,
2013-09-19 04:16:00,60.4,57.7,29.83,SSW,205,0.0,0.0,91,0.00,,,0.00,meteohub,2013-09-19 11:16:00,
2013-09-19 04:21:00,60.3,57.6,29.83,SSW,205,0.0,0.0,91,0.00,,,0.00,meteohub,2013-09-19 11:21:00,
2013-09-19 04:26:00,60.3,57.6,29.83,SSW,205,0.0,0.0,91,0.00,,,0.00,meteohub,2013-09-19 11:26:00,
2013-09-19 04:31:00,60.1,57.4,29.83,SSW,205,0.0,0.0,91,0.00,,,0.00,meteohub,2013-09-19 11:31:00,
2013-09-19 04:36:00,60.1,57.4,29.83,SSW,205,0.0,0.0,91,0.00,,,0.00,meteohub,2013-09-19 11:36:00,
2013-09-19 04:41:00,60.1,57.4,29.83,SSW,205,0.0,0.0,91,0.00,,,0.00,meteohub,2013-09-19 11:41:00,
2013-09-19 04:46:00,59.9,57.0,29.83,SSW,205,0.0,0.0,90,0.00,,,0.00,meteohub,2013-09-19 11:46:00,
2013-09-19 04:51:00,59.7,57.0,29.83,SSW,205,0.0,0.0,91,0.00,,,0.00,meteohub,2013-09-19 11:51:00,
2013-09-19 04:56:00,59.5,56.8,29.83,SSW,205,0.0,0.0,91,0.00,,,0.00,meteohub,2013-09-19 11:56:00,
2013-09-19 05:01:00,59.5,56.8,29.83,SSW,205,0.0,0.0,91,0.00,,,0.00,meteohub,2013-09-19 12:01:00,
2013-09-19 05:06:00,59.4,56.7,29.83,SSW,205,0.0,0.0,91,0.00,,,0.00,meteohub,2013-09-19 12:06:00,
2013-09-19 05:11:00,59.4,56.7,29.83,SSW,205,0.0,0.0,91,0.00,,,0.00,meteohub,2013-09-19 12:11:00,
2013-09-19 05:16:00,59.4,57.0,29.83,SSW,205,0.0,1.0,92,0.00,,,0.00,meteohub,2013-09-19 12:16:00,
2013-09-19 05:21:00,59.2,56.8,29.83,SSW,205,0.0,1.0,92,0.00,,,0.00,meteohub,2013-09-19 12:21:00,
2013-09-19 05:26:00,59.4,57.0,29.83,SSW,205,0.0,0.0,92,0.00,,,0.00,meteohub,2013-09-19 12:26:00,
2013-09-19 05:31:00,59.4,57.0,29.83,SSW,205,0.0,0.0,92,0.00,,,0.00,meteohub,2013-09-19 12:31:00,
2013-09-19 05:36:00,59.4,57.4,29.83,SSW,205,0.0,0.0,93,0.00,,,0.00,meteohub,2013-09-19 12:36:00,
2013-09-19 05:41:00,59.5,57.2,29.83,SSW,205,0.0,0.0,92,0.00,,,0.00,meteohub,2013-09-19 12:41:00,
2013-09-19 05:46:00,59.5,57.2,29.83,SSW,205,0.0,0.0,92,0.00,,,0.00,meteohub,2013-09-19 12:46:00,
2013-09-19 05:51:00,59.5,57.6,29.84,SSW,205,0.0,1.0,93,0.00,,,0.00,meteohub,2013-09-19 12:51:00,
2013-09-19 05:56:00,59.7,57.7,29.84,SSW,205,0.0,1.0,93,0.00,,,0.00,meteohub,2013-09-19 12:56:00,
2013-09-19 06:01:00,60.1,57.7,29.84,SSW,205,0.0,1.0,92,0.00,,,0.00,meteohub,2013-09-19 13:01:00,
2013-09-19 06:06:00,60.1,57.7,29.84,SSW,205,0.0,0.0,92,0.00,,,0.00,meteohub,2013-09-19 13:06:00,
2013-09-19 06:11:00,60.3,57.9,29.84,SSW,205,0.0,0.0,92,0.00,,,0.00,meteohub,2013-09-19 13:11:00,
2013-09-19 06:16:00,60.3,57.9,29.85,SSW,205,0.0,0.0,92,0.00,,,0.00,meteohub,2013-09-19 13:16:00,
2013-09-19 06:21:00,60.3,57.9,29.85,SSW,205,0.0,0.0,92,0.00,,,0.00,meteohub,2013-09-19 13:21:00,
2013-09-19 06:26:00,60.4,58.5,29.85,SSW,205,0.0,0.0,93,0.00,,,0.00,meteohub,2013-09-19 13:26:00,
2013-09-19 06:31:00,60.6,58.6,29.85,SSW,205,0.0,0.0,93,0.00,,,0.00,meteohub,2013-09-19 13:31:00,
2013-09-19 06:36:00,61.0,58.6,29.85,SSW,205,0.0,0.0,92,0.00,,,0.00,meteohub,2013-09-19 13:36:00,
2013-09-19 06:41:00,61.3,59.0,29.85,SSW,205,0.0,0.0,92,0.00,,,0.00,meteohub,2013-09-19 13:41:00,
2013-09-19 06:46:00,61.3,58.6,29.86,SSW,205,0.0,0.0,91,0.00,,,0.00,meteohub,2013-09-19 13:46:00,
2013-09-19 06:51:00,61.5,58.8,29.86,SSW,205,0.0,0.0,91,0.00,,,0.00,meteohub,2013-09-19 13:51:00,
2013-09-19 06:56:00,61.7,59.0,29.86,SSW,205,0.0,0.0,91,0.00,,,0.00,meteohub,2013-09-19 13:56:00,
2013-09-19 07:01:00,61.9,59.2,29.86,SSW,205,0.0,0.0,91,0.00,,,0.00,meteohub,2013-09-19 14:01:00,
2013-09-19 07:06:00,62.1,59.4,29.87,SSW,205,0.0,0.0,91,0.00,,,0.00,meteohub,2013-09-19 14:06:00,
2013-09-19 07:11:00,62.1,59.4,29.87,SSW,205,0.0,0.0,91,0.00,,,0.00,meteohub,2013-09-19 14:11:00,
2013-09-19 07:16:00,62.2,59.5,29.87,SSW,205,0.0,0.0,91,0.00,,,0.00,meteohub,2013-09-19 14:16:00,
2013-09-19 07:21:00,62.2,59.5,29.87,SSW,205,0.0,0.0,91,0.00,,,0.00,meteohub,2013-09-19 14:21:00,
2013-09-19 07:26:00,62.4,59.7,29.87,SSW,205,0.0,1.0,91,0.00,,,0.00,meteohub,2013-09-19 14:26:00,
2013-09-19 07:31:00,62.8,60.1,29.87,SSW,205,0.0,1.0,91,0.00,,,0.00,meteohub,2013-09-19 14:31:00,
2013-09-19 07:36:00,63.0,60.3,29.87,SSW,205,0.0,1.0,91,0.00,,,0.00,meteohub,2013-09-19 14:36:00,
2013-09-19 07:41:00,63.1,60.1,29.87,SSW,205,0.0,1.0,90,0.00,,,0.00,meteohub,2013-09-19 14:41:00,
2013-09-19 07:46:00,63.3,60.3,29.87,SSW,205,0.0,1.0,90,0.00,,,0.00,meteohub,2013-09-19 14:46:00,
2013-09-19 07:51:00,63.5,60.3,29.87,SSW,205,0.0,1.0,89,0.00,,,0.00,meteohub,2013-09-19 14:51:00,
2013-09-19 07:56:00,63.7,60.4,29.87,SSW,205,0.0,1.0,89,0.00,,,0.00,meteohub,2013-09-19 14:56:00,
2013-09-19 08:01:00,63.9,60.6,29.87,SSW,205,0.0,1.0,89,0.00,,,0.00,meteohub,2013-09-19 15:01:00,
2013-09-19 08:06:00,64.0,60.8,29.87,SSW,205,0.0,0.0,89,0.00,,,0.00,meteohub,2013-09-19 15:06:00,
2013-09-19 08:11:00,64.2,60.6,29.87,SSW,205,0.0,0.0,88,0.00,,,0.00,meteohub,2013-09-19 15:11:00,
2013-09-19 08:16:00,64.4,60.8,29.87,SSW,205,0.0,0.0,88,0.00,,,0.00,meteohub,2013-09-19 15:16:00,
2013-09-19 08:21:00,64.6,61.0,29.87,SSW,205,0.0,1.0,88,0.00,,,0.00,meteohub,2013-09-19 15:21:00,
2013-09-19 08:26:00,64.9,61.0,29.87,SSW,205,0.0,1.0,87,0.00,,,0.00,meteohub,2013-09-19 15:26:00,
2013-09-19 08:31:00,64.9,60.3,29.88,SSW,205,0.0,1.0,85,0.00,,,0.00,meteohub,2013-09-19 15:31:00,
2013-09-19 08:36:00,65.1,60.4,29.88,SSW,205,0.0,0.0,85,0.00,,,0.00,meteohub,2013-09-19 15:36:00,
2013-09-19 08:41:00,65.3,60.6,29.88,SSW,205,0.0,1.0,85,0.00,,,0.00,meteohub,2013-09-19 15:41:00,
2013-09-19 08:46:00,65.5,61.2,29.88,SSW,205,0.0,1.0,86,0.00,,,0.00,meteohub,2013-09-19 15:46:00,
2013-09-19 08:51:00,65.7,60.6,29.88,SSW,205,0.0,1.0,84,0.00,,,0.00,meteohub,2013-09-19 15:51:00,
2013-09-19 08:56:00,65.8,60.8,29.88,SSW,205,0.0,1.0,84,0.00,,,0.00,meteohub,2013-09-19 15:56:00,
2013-09-19 09:01:00,65.8,60.8,29.88,SSW,205,0.0,1.0,84,0.00,,,0.00,meteohub,2013-09-19 16:01:00,
2013-09-19 09:06:00,66.0,61.0,29.88,SSW,205,0.0,1.0,84,0.00,,,0.00,meteohub,2013-09-19 16:06:00,
2013-09-19 09:11:00,66.2,60.8,29.88,SSW,205,0.0,1.0,83,0.00,,,0.00,meteohub,2013-09-19 16:11:00,
2013-09-19 09:16:00,66.4,60.8,29.88,SSW,205,0.0,1.0,82,0.00,,,0.00,meteohub,2013-09-19 16:16:00,
2013-09-19 09:21:00,66.6,61.2,29.88,SSW,205,0.0,1.0,83,0.00,,,0.00,meteohub,2013-09-19 16:21:00,
2013-09-19 09:26:00,66.7,61.0,29.88,SSW,205,0.0,0.0,82,0.00,,,0.00,meteohub,2013-09-19 16:26:00,
2013-09-19 09:31:00,67.1,61.2,29.88,SSW,205,1.0,1.0,81,0.00,,,0.00,meteohub,2013-09-19 16:31:00,
2013-09-19 09:36:00,67.3,61.2,29.88,SSW,205,0.0,2.0,81,0.00,,,0.00,meteohub,2013-09-19 16:36:00,
2013-09-19 09:41:00,67.5,61.2,29.88,SSW,205,0.0,2.0,80,0.00,,,0.00,meteohub,2013-09-19 16:41:00,
2013-09-19 09:46:00,67.6,61.2,29.88,SSW,205,0.0,3.0,80,0.00,,,0.00,meteohub,2013-09-19 16:46:00,
2013-09-19 09:51:00,67.6,61.2,29.88,SSW,205,0.0,3.0,80,0.00,,,0.00,meteohub,2013-09-19 16:51:00,
2013-09-19 09:56:00,67.6,61.2,29.88,SSW,205,0.0,3.0,80,0.00,,,0.00,meteohub,2013-09-19 16:56:00,
2013-09-19 10:01:00,68.0,61.5,29.88,SSW,205,0.0,3.0,80,0.00,,,0.00,meteohub,2013-09-19 17:01:00,
2013-09-19 10:06:00,68.5,61.7,29.88,SSW,196,0.0,4.0,79,0.00,,,0.00,meteohub,2013-09-19 17:06:00,
2013-09-19 10:11:00,69.3,62.1,29.88,SSW,196,0.0,4.0,78,0.00,,,0.00,meteohub,2013-09-19 17:11:00,
2013-09-19 10:16:00,69.6,62.1,29.88,South,184,0.0,4.0,77,0.00,,,0.00,meteohub,2013-09-19 17:16:00,
2013-09-19 10:21:00,70.2,62.2,29.88,South,184,0.0,3.0,76,0.00,,,0.00,meteohub,2013-09-19 17:21:00,
2013-09-19 10:26:00,70.9,62.2,29.87,South,184,0.0,3.0,74,0.00,,,0.00,meteohub,2013-09-19 17:26:00,
2013-09-19 10:31:00,71.4,62.2,29.87,South,173,0.0,2.0,73,0.00,,,0.00,meteohub,2013-09-19 17:31:00,
2013-09-19 10:36:00,71.8,61.9,29.87,SW,215,0.0,4.0,71,0.00,,,0.00,meteohub,2013-09-19 17:36:00,
2013-09-19 10:41:00,71.6,62.1,29.88,SW,220,0.0,4.0,72,0.00,,,0.00,meteohub,2013-09-19 17:41:00,
2013-09-19 10:46:00,71.4,61.9,29.88,SW,220,0.0,4.0,72,0.00,,,0.00,meteohub,2013-09-19 17:46:00,
2013-09-19 10:51:00,71.6,62.1,29.88,SW,219,0.0,4.0,72,0.00,,,0.00,meteohub,2013-09-19 17:51:00,
2013-09-19 10:56:00,71.8,62.2,29.87,SW,219,0.0,4.0,72,0.00,,,0.00,meteohub,2013-09-19 17:56:00,
2013-09-19 11:01:00,72.3,62.4,29.88,SW,219,0.0,3.0,71,0.00,,,0.00,meteohub,2013-09-19 18:01:00,
2013-09-19 11:06:00,73.2,62.4,29.87,SSW,208,0.0,3.0,69,0.00,,,0.00,meteohub,2013-09-19 18:06:00,
2013-09-19 11:11:00,73.9,62.2,29.87,SSW,199,0.0,3.0,67,0.00,,,0.00,meteohub,2013-09-19 18:11:00,
2013-09-19 11:16:00,74.1,62.4,29.87,SSW,199,0.0,3.0,67,0.00,,,0.00,meteohub,2013-09-19 18:16:00,
2013-09-19 11:21:00,74.5,63.1,29.87,SSW,206,1.0,2.0,68,0.00,,,0.00,meteohub,2013-09-19 18:21:00,
2013-09-19 11:26:00,74.7,62.6,29.87,SW,217,0.0,4.0,66,0.00,,,0.00,meteohub,2013-09-19 18:26:00,
2013-09-19 11:31:00,74.8,62.2,29.87,SW,217,1.0,6.0,65,0.00,,,0.00,meteohub,2013-09-19 18:31:00,
2013-09-19 11:36:00,74.8,62.8,29.87,East,85,2.0,6.0,66,0.00,,,0.00,meteohub,2013-09-19 18:36:00,
2013-09-19 11:41:00,75.4,62.8,29.87,ENE,70,0.0,6.0,65,0.00,,,0.00,meteohub,2013-09-19 18:41:00,
2013-09-19 11:46:00,75.9,63.3,29.86,WSW,238,0.0,3.0,65,0.00,,,0.00,meteohub,2013-09-19 18:46:00,
2013-09-19 11:51:00,76.5,63.9,29.86,SSE,153,2.0,4.0,65,0.00,,,0.00,meteohub,2013-09-19 18:51:00,
2013-09-19 11:56:00,76.8,63.3,29.86,SW,236,2.0,4.0,63,0.00,,,0.00,meteohub,2013-09-19 18:56:00,
2013-09-19 12:01:00,76.8,63.3,29.86,SW,223,0.0,5.0,63,0.00,,,0.00,meteohub,2013-09-19 19:01:00,
2013-09-19 12:06:00,76.6,63.1,29.86,SW,221,2.0,5.0,63,0.00,,,0.00,meteohub,2013-09-19 19:06:00,
2013-09-19 12:11:00,76.8,63.3,29.86,SSW,197,0.0,6.0,63,0.00,,,0.00,meteohub,2013-09-19 19:11:00,
2013-09-19 12:16:00,77.2,63.7,29.86,SW,234,4.0,6.0,63,0.00,,,0.00,meteohub,2013-09-19 19:16:00,
2013-09-19 12:21:00,77.2,63.7,29.86,SW,235,0.0,4.0,63,0.00,,,0.00,meteohub,2013-09-19 19:21:00,
2013-09-19 12:26:00,77.0,63.5,29.86,SW,223,4.0,8.0,63,0.00,,,0.00,meteohub,2013-09-19 19:26:00,
2013-09-19 12:31:00,76.6,63.1,29.86,West,259,0.0,8.0,63,0.00,,,0.00,meteohub,2013-09-19 19:31:00,
2013-09-19 12:36:00,76.8,63.3,29.86,WNW,298,0.0,8.0,63,0.00,,,0.00,meteohub,2013-09-19 19:36:00,
2013-09-19 12:41:00,77.2,63.7,29.85,South,187,0.0,5.0,63,0.00,,,0.00,meteohub,2013-09-19 19:41:00,
2013-09-19 12:46:00,77.7,63.7,29.85,WSW,237,0.0,5.0,62,0.00,,,0.00,meteohub,2013-09-19 19:46:00,
2013-09-19 12:51:00,78.1,64.4,29.85,SW,235,0.0,5.0,63,0.00,,,0.00,meteohub,2013-09-19 19:51:00,
2013-09-19 12:56:00,78.1,64.0,29.85,SW,221,4.0,5.0,62,0.00,,,0.00,meteohub,2013-09-19 19:56:00,
2013-09-19 13:01:00,77.9,64.2,29.85,WSW,242,2.0,6.0,63,0.00,,,0.00,meteohub,2013-09-19 20:01:00,
2013-09-19 13:06:00,78.1,64.0,29.84,SSW,192,1.0,6.0,62,0.00,,,0.00,meteohub,2013-09-19 20:06:00,
2013-09-19 13:11:00,77.9,63.9,29.85,SSW,213,1.0,7.0,62,0.00,,,0.00,meteohub,2013-09-19 20:11:00,
2013-09-19 13:16:00,77.7,64.0,29.84,South,176,1.0,7.0,63,0.00,,,0.00,meteohub,2013-09-19 20:16:00,
2013-09-19 13:21:00,77.9,63.9,29.84,SW,229,4.0,7.0,62,0.00,,,0.00,meteohub,2013-09-19 20:21:00,
2013-09-19 13:26:00,77.5,63.9,29.84,SSW,199,2.0,6.0,63,0.00,,,0.00,meteohub,2013-09-19 20:26:00,
2013-09-19 13:31:00,77.5,63.9,29.84,SW,223,0.0,6.0,63,0.00,,,0.00,meteohub,2013-09-19 20:31:00,
2013-09-19 13:36:00,77.5,63.9,29.84,SSW,192,1.0,6.0,63,0.00,,,0.00,meteohub,2013-09-19 20:36:00,
2013-09-19 13:41:00,77.7,64.0,29.84,WSW,247,0.0,6.0,63,0.00,,,0.00,meteohub,2013-09-19 20:41:00,
2013-09-19 13:46:00,78.1,64.0,29.83,South,185,2.0,6.0,62,0.00,,,0.00,meteohub,2013-09-19 20:46:00,
2013-09-19 13:51:00,78.1,64.0,29.83,SW,234,2.0,7.0,62,0.00,,,0.00,meteohub,2013-09-19 20:51:00,
2013-09-19 13:56:00,78.1,64.0,29.83,SSW,210,0.0,7.0,62,0.00,,,0.00,meteohub,2013-09-19 20:56:00,
2013-09-19 14:01:00,78.3,64.2,29.83,South,186,1.0,7.0,62,0.00,,,0.00,meteohub,2013-09-19 21:01:00,
2013-09-19 14:06:00,78.3,64.2,29.83,SW,220,1.0,5.0,62,0.00,,,0.00,meteohub,2013-09-19 21:06:00,
2013-09-19 14:11:00,78.3,64.2,29.83,SW,214,1.0,6.0,62,0.00,,,0.00,meteohub,2013-09-19 21:11:00,
2013-09-19 14:16:00,78.3,64.2,29.83,South,169,0.0,6.0,62,0.00,,,0.00,meteohub,2013-09-19 21:16:00,
2013-09-19 14:21:00,78.1,63.5,29.83,SW,221,3.0,7.0,61,0.00,,,0.00,meteohub,2013-09-19 21:21:00,
2013-09-19 14:26:00,77.9,63.9,29.83,SSW,204,3.0,8.0,62,0.00,,,0.00,meteohub,2013-09-19 21:26:00,
2013-09-19 14:31:00,77.9,63.9,29.83,SSW,192,2.0,8.0,62,0.00,,,0.00,meteohub,2013-09-19 21:31:00,
2013-09-19 14:36:00,77.7,63.7,29.83,SW,219,3.0,8.0,62,0.00,,,0.00,meteohub,2013-09-19 21:36:00,
2013-09-19 14:41:00,77.4,63.3,29.83,SSW,196,4.0,8.0,62,0.00,,,0.00,meteohub,2013-09-19 21:41:00,
2013-09-19 14:46:00,77.0,63.5,29.83,South,182,1.0,8.0,63,0.00,,,0.00,meteohub,2013-09-19 21:46:00,
2013-09-19 14:51:00,77.0,63.9,29.83,SW,224,1.0,7.0,64,0.00,,,0.00,meteohub,2013-09-19 21:51:00,
2013-09-19 14:56:00,77.4,63.9,29.83,SSW,211,3.0,7.0,63,0.00,,,0.00,meteohub,2013-09-19 21:56:00,
2013-09-19 15:01:00,77.2,63.7,29.83,SSW,204,0.0,5.0,63,0.00,,,0.00,meteohub,2013-09-19 22:01:00,
2013-09-19 15:06:00,76.8,63.3,29.83,SSW,194,2.0,8.0,63,0.00,,,0.00,meteohub,2013-09-19 22:06:00,
2013-09-19 15:11:00,76.6,63.5,29.83,SW,228,1.0,8.0,64,0.00,,,0.00,meteohub,2013-09-19 22:11:00,
2013-09-19 15:16:00,76.6,63.5,29.83,SW,232,2.0,8.0,64,0.00,,,0.00,meteohub,2013-09-19 22:16:00,
2013-09-19 15:21:00,76.3,63.1,29.83,SW,218,2.0,7.0,64,0.00,,,0.00,meteohub,2013-09-19 22:21:00,
2013-09-19 15:26:00,76.1,63.5,29.83,SSW,209,0.0,7.0,65,0.00,,,0.00,meteohub,2013-09-19 22:26:00,
2013-09-19 15:31:00,76.3,63.7,29.83,South,178,1.0,7.0,65,0.00,,,0.00,meteohub,2013-09-19 22:31:00,
2013-09-19 15:36:00,76.1,63.9,29.83,South,190,0.0,7.0,66,0.00,,,0.00,meteohub,2013-09-19 22:36:00,
2013-09-19 15:41:00,75.9,63.3,29.83,South,185,2.0,5.0,65,0.00,,,0.00,meteohub,2013-09-19 22:41:00,
2013-09-19 15:46:00,75.7,63.5,29.83,SSW,209,6.0,6.0,66,0.00,,,0.00,meteohub,2013-09-19 22:46:00,
2013-09-19 15:51:00,75.7,63.1,29.82,SW,226,0.0,6.0,65,0.00,,,0.00,meteohub,2013-09-19 22:51:00,
2013-09-19 15:56:00,75.6,63.3,29.83,South,186,4.0,6.0,66,0.00,,,0.00,meteohub,2013-09-19 22:56:00,
2013-09-19 16:01:00,75.4,63.7,29.82,South,175,0.0,6.0,67,0.00,,,0.00,meteohub,2013-09-19 23:01:00,
2013-09-19 16:06:00,75.4,63.7,29.82,SSW,200,0.0,6.0,67,0.00,,,0.00,meteohub,2013-09-19 23:06:00,
2013-09-19 16:11:00,75.2,63.5,29.82,South,180,2.0,6.0,67,0.00,,,0.00,meteohub,2013-09-19 23:11:00,
2013-09-19 16:16:00,74.8,63.1,29.82,WSW,243,1.0,7.0,67,0.00,,,0.00,meteohub,2013-09-19 23:16:00,
2013-09-19 16:21:00,74.8,63.1,29.82,SW,227,3.0,7.0,67,0.00,,,0.00,meteohub,2013-09-19 23:21:00,
2013-09-19 16:26:00,74.7,63.0,29.82,South,174,1.0,7.0,67,0.00,,,0.00,meteohub,2013-09-19 23:26:00,
2013-09-19 16:31:00,74.5,63.1,29.82,SW,227,0.0,5.0,68,0.00,,,0.00,meteohub,2013-09-19 23:31:00,
2013-09-19 16:36:00,74.5,63.1,29.82,SW,221,0.0,5.0,68,0.00,,,0.00,meteohub,2013-09-19 23:36:00,
2013-09-19 16:41:00,74.1,63.0,29.82,SSW,208,0.0,5.0,68,0.00,,,0.00,meteohub,2013-09-19 23:41:00,
2013-09-19 16:46:00,73.9,63.1,29.82,SSW,209,2.0,5.0,69,0.00,,,0.00,meteohub,2013-09-19 23:46:00,
2013-09-19 16:51:00,73.8,63.0,29.82,South,191,1.0,5.0,69,0.00,,,0.00,meteohub,2013-09-19 23:51:00,
2013-09-19 16:56:00,73.8,63.0,29.82,South,182,2.0,7.0,69,0.00,,,0.00,meteohub,2013-09-19 23:56:00,
2013-09-19 17:01:00,73.8,63.0,29.82,SSW,202,1.0,7.0,69,0.00,,,0.00,meteohub,2013-09-20 00:01:00,
2013-09-19 17:06:00,73.6,62.8,29.82,SSW,193,1.0,4.0,69,0.00,,,0.00,meteohub,2013-09-20 00:06:00,
2013-09-19 17:11:00,73.2,62.8,29.82,South,170,2.0,6.0,70,0.00,,,0.00,meteohub,2013-09-20 00:11:00,
2013-09-19 17:16:00,72.9,62.4,29.82,SSW,195,1.0,6.0,70,0.00,,,0.00,meteohub,2013-09-20 00:16:00,
2013-09-19 17:21:00,72.3,62.4,29.82,South,179,5.0,6.0,71,0.00,,,0.00,meteohub,2013-09-20 00:21:00,
2013-09-19 17:26:00,72.0,62.4,29.82,SW,224,3.0,6.0,72,0.00,,,0.00,meteohub,2013-09-20 00:26:00,
2013-09-19 17:31:00,71.4,62.2,29.82,SW,226,0.0,6.0,73,0.00,,,0.00,meteohub,2013-09-20 00:31:00,
2013-09-19 17:36:00,71.1,61.9,29.82,SW,230,0.0,6.0,73,0.00,,,0.00,meteohub,2013-09-20 00:36:00,
2013-09-19 17:41:00,70.5,61.9,29.83,South,176,0.0,6.0,74,0.00,,,0.00,meteohub,2013-09-20 00:41:00,
2013-09-19 17:46:00,70.3,62.1,29.83,South,173,4.0,6.0,75,0.00,,,0.00,meteohub,2013-09-20 00:46:00,
2013-09-19 17:51:00,70.0,62.1,29.83,SSE,166,2.0,7.0,76,0.00,,,0.00,meteohub,2013-09-20 00:51:00,
2013-09-19 17:56:00,69.6,61.7,29.83,SSW,202,1.0,7.0,76,0.00,,,0.00,meteohub,2013-09-20 00:56:00,
2013-09-19 18:01:00,69.4,61.9,29.83,SSW,195,2.0,6.0,77,0.00,,,0.00,meteohub,2013-09-20 01:01:00,
2013-09-19 18:06:00,69.1,61.5,29.83,SW,222,1.0,6.0,77,0.00,,,0.00,meteohub,2013-09-20 01:06:00,
2013-09-19 18:11:00,68.7,61.5,29.83,South,188,0.0,6.0,78,0.00,,,0.00,meteohub,2013-09-20 01:11:00,
2013-09-19 18:16:00,68.5,61.3,29.83,SW,228,4.0,8.0,78,0.00,,,0.00,meteohub,2013-09-20 01:16:00,
2013-09-19 18:21:00,68.4,61.5,29.83,SSW,192,0.0,8.0,79,0.00,,,0.00,meteohub,2013-09-20 01:21:00,
2013-09-19 18:26:00,68.2,61.3,29.83,SSW,211,1.0,6.0,79,0.00,,,0.00,meteohub,2013-09-20 01:26:00,
2013-09-19 18:31:00,68.0,61.5,29.83,South,187,0.0,6.0,80,0.00,,,0.00,meteohub,2013-09-20 01:31:00,
2013-09-19 18:36:00,67.8,61.3,29.83,South,170,0.0,6.0,80,0.00,,,0.00,meteohub,2013-09-20 01:36:00,
2013-09-19 18:41:00,67.6,61.5,29.84,South,170,0.0,6.0,81,0.00,,,0.00,meteohub,2013-09-20 01:41:00,
2013-09-19 18:46:00,67.6,61.5,29.83,SW,231,0.0,6.0,81,0.00,,,0.00,meteohub,2013-09-20 01:46:00,
2013-09-19 18:51:00,67.5,61.3,29.84,SSW,202,0.0,5.0,81,0.00,,,0.00,meteohub,2013-09-20 01:51:00,
2013-09-19 18:56:00,67.5,61.3,29.84,SSW,203,0.0,5.0,81,0.00,,,0.00,meteohub,2013-09-20 01:56:00,
2013-09-19 19:01:00,67.3,61.5,29.84,SSW,201,0.0,4.0,82,0.00,,,0.00,meteohub,2013-09-20 02:01:00,
2013-09-19 19:06:00,67.1,61.3,29.84,SSE,163,0.0,2.0,82,0.00,,,0.00,meteohub,2013-09-20 02:06:00,
2013-09-19 19:11:00,67.1,61.3,29.84,SSE,163,0.0,6.0,82,0.00,,,0.00,meteohub,2013-09-20 02:11:00,
2013-09-19 19:16:00,66.9,61.2,29.84,SSE,163,0.0,6.0,82,0.00,,,0.00,meteohub,2013-09-20 02:16:00,
2013-09-19 19:21:00,66.9,61.2,29.85,SSE,163,0.0,4.0,82,0.00,,,0.00,meteohub,2013-09-20 02:21:00,
2013-09-19 19:26:00,66.7,61.0,29.85,South,182,0.0,2.0,82,0.00,,,0.00,meteohub,2013-09-20 02:26:00,
2013-09-19 19:31:00,66.7,61.3,29.85,South,182,0.0,2.0,83,0.00,,,0.00,meteohub,2013-09-20 02:31:00,
2013-09-19 19:36:00,66.6,61.2,29.85,South,182,0.0,2.0,83,0.00,,,0.00,meteohub,2013-09-20 02:36:00,
2013-09-19 19:41:00,66.6,61.2,29.85,South,182,0.0,1.0,83,0.00,,,0.00,meteohub,2013-09-20 02:41:00,
2013-09-19 19:46:00,66.4,61.0,29.85,South,182,0.0,1.0,83,0.00,,,0.00,meteohub,2013-09-20 02:46:00,
2013-09-19 19:51:00,66.4,61.3,29.86,South,183,0.0,2.0,84,0.00,,,0.00,meteohub,2013-09-20 02:51:00,
2013-09-19 19:56:00,66.2,61.2,29.86,South,183,0.0,2.0,84,0.00,,,0.00,meteohub,2013-09-20 02:56:00,
2013-09-19 20:01:00,66.2,61.2,29.86,South,183,0.0,0.0,84,0.00,,,0.00,meteohub,2013-09-20 03:01:00,
2013-09-19 20:06:00,66.2,61.2,29.86,South,183,0.0,0.0,84,0.00,,,0.00,meteohub,2013-09-20 03:06:00,
2013-09-19 20:11:00,66.0,61.0,29.86,South,183,0.0,0.0,84,0.00,,,0.00,meteohub,2013-09-20 03:11:00,
2013-09-19 20:16:00,66.0,61.0,29.86,South,183,0.0,0.0,84,0.00,,,0.00,meteohub,2013-09-20 03:16:00,
2013-09-19 20:21:00,66.0,61.0,29.86,South,183,0.0,0.0,84,0.00,,,0.00,meteohub,2013-09-20 03:21:00,
2013-09-19 20:26:00,66.0,61.3,29.87,South,183,0.0,0.0,85,0.00,,,0.00,meteohub,2013-09-20 03:26:00,
2013-09-19 20:31:00,66.0,61.3,29.87,South,183,0.0,0.0,85,0.00,,,0.00,meteohub,2013-09-20 03:31:00,
2013-09-19 20:36:00,66.0,61.3,29.87,South,183,0.0,0.0,85,0.00,,,0.00,meteohub,2013-09-20 03:36:00,
2013-09-19 20:41:00,66.0,61.3,29.87,South,183,0.0,0.0,85,0.00,,,0.00,meteohub,2013-09-20 03:41:00,
2013-09-19 20:47:00,66.0,61.3,29.87,South,183,0.0,0.0,85,0.00,,,0.00,meteohub,2013-09-20 03:47:00,
2013-09-19 20:52:00,66.2,61.5,29.87,South,183,0.0,0.0,85,0.00,,,0.00,meteohub,2013-09-20 03:52:00,
2013-09-19 20:57:00,66.2,61.5,29.88,South,183,0.0,0.0,85,0.00,,,0.00,meteohub,2013-09-20 03:57:00,
2013-09-19 21:01:00,66.2,61.5,29.88,South,183,0.0,0.0,85,0.00,,,0.00,meteohub,2013-09-20 04:01:00,
2013-09-19 21:02:00,66.4,61.7,29.88,South,183,0.0,0.0,85,0.00,,,0.00,meteohub,2013-09-20 04:02:00,
2013-09-19 21:07:00,66.4,61.3,29.88,South,183,0.0,0.0,84,0.00,,,0.00,meteohub,2013-09-20 04:07:00,
2013-09-19 21:12:00,66.4,61.3,29.88,South,183,0.0,0.0,84,0.00,,,0.00,meteohub,2013-09-20 04:12:00,
2013-09-19 21:18:00,66.4,61.3,29.88,South,183,0.0,0.0,84,0.00,,,0.00,meteohub,2013-09-20 04:18:00,
2013-09-19 21:23:00,66.6,61.5,29.88,South,183,0.0,0.0,84,0.00,,,0.00,meteohub,2013-09-20 04:23:00,
2013-09-19 21:28:00,66.6,61.5,29.88,South,183,0.0,0.0,84,0.00,,,0.00,meteohub,2013-09-20 04:28:00,
2013-09-19 21:33:00,66.6,61.5,29.88,South,183,0.0,0.0,84,0.00,,,0.00,meteohub,2013-09-20 04:33:00,
2013-09-19 21:38:00,66.6,61.5,29.88,South,185,0.0,0.0,84,0.00,,,0.00,meteohub,2013-09-20 04:38:00,
2013-09-19 21:43:00,66.7,61.3,29.88,South,185,0.0,1.0,83,0.00,,,0.00,meteohub,2013-09-20 04:43:00,
2013-09-19 21:48:00,66.7,61.7,29.88,South,185,0.0,1.0,84,0.00,,,0.00,meteohub,2013-09-20 04:48:00,
2013-09-19 21:53:00,66.7,61.7,29.88,South,185,0.0,1.0,84,0.00,,,0.00,meteohub,2013-09-20 04:53:00,
2013-09-19 21:58:00,66.7,61.7,29.89,South,185,0.0,0.0,84,0.00,,,0.00,meteohub,2013-09-20 04:58:00,
2013-09-19 22:03:00,66.7,61.7,29.89,South,185,0.0,0.0,84,0.00,,,0.00,meteohub,2013-09-20 05:03:00,
2013-09-19 22:08:00,66.9,61.5,29.89,South,185,0.0,0.0,83,0.00,,,0.00,meteohub,2013-09-20 05:08:00,
2013-09-19 22:13:00,66.9,61.5,29.89,South,185,0.0,0.0,83,0.00,,,0.00,meteohub,2013-09-20 05:13:00,
2013-09-19 22:18:00,66.9,61.5,29.88,South,185,0.0,0.0,83,0.00,,,0.00,meteohub,2013-09-20 05:18:00,
2013-09-19 22:23:00,66.9,61.5,29.89,South,185,0.0,0.0,83,0.00,,,0.00,meteohub,2013-09-20 05:23:00,
2013-09-19 22:28:00,66.9,61.5,29.89,South,185,0.0,0.0,83,0.00,,,0.00,meteohub,2013-09-20 05:28:00,
2013-09-19 22:34:00,66.9,61.5,29.89,South,185,0.0,0.0,83,0.00,,,0.00,meteohub,2013-09-20 05:34:00,
2013-09-19 22:39:00,66.9,61.5,29.88,South,185,0.0,0.0,83,0.00,,,0.00,meteohub,2013-09-20 05:39:00,
2013-09-19 22:44:00,66.9,61.5,29.88,South,185,0.0,0.0,83,0.00,,,0.00,meteohub,2013-09-20 05:44:00,
2013-09-19 22:49:00,66.9,61.5,29.88,South,185,0.0,0.0,83,0.00,,,0.00,meteohub,2013-09-20 05:49:00,
2013-09-19 22:54:00,66.9,61.5,29.88,South,185,0.0,0.0,83,0.00,,,0.00,meteohub,2013-09-20 05:54:00,
2013-09-19 22:59:00,66.9,61.5,29.89,South,185,0.0,0.0,83,0.00,,,0.00,meteohub,2013-09-20 05:59:00,
2013-09-19 23:04:00,66.7,61.3,29.89,South,185,0.0,0.0,83,0.00,,,0.00,meteohub,2013-09-20 06:04:00,
2013-09-19 23:09:00,66.7,61.3,29.89,South,185,0.0,0.0,83,0.00,,,0.00,meteohub,2013-09-20 06:09:00,
2013-09-19 23:14:00,66.7,61.3,29.89,South,185,0.0,0.0,83,0.00,,,0.00,meteohub,2013-09-20 06:14:00,
2013-09-19 23:19:00,66.7,61.3,29.89,South,185,0.0,0.0,83,0.00,,,0.00,meteohub,2013-09-20 06:19:00,
2013-09-19 23:24:00,66.7,61.3,29.89,South,185,0.0,0.0,83,0.00,,,0.00,meteohub,2013-09-20 06:24:00,
2013-09-19 23:29:00,66.7,61.3,29.89,South,185,0.0,0.0,83,0.00,,,0.00,meteohub,2013-09-20 06:29:00,
2013-09-19 23:34:00,66.6,61.2,29.89,South,185,0.0,0.0,83,0.00,,,0.00,meteohub,2013-09-20 06:34:00,
2013-09-19 23:39:00,66.6,61.2,29.89,South,185,0.0,0.0,83,0.00,,,0.00,meteohub,2013-09-20 06:39:00,
2013-09-19 23:44:00,66.4,61.3,29.89,South,185,0.0,0.0,84,0.00,,,0.00,meteohub,2013-09-20 06:44:00,
2013-09-19 23:49:00,66.4,61.3,29.88,South,185,0.0,0.0,84,0.00,,,0.00,meteohub,2013-09-20 06:49:00,
2013-09-19 23:54:00,66.4,61.3,29.88,South,185,0.0,0.0,84,0.00,,,0.00,meteohub,2013-09-20 06:54:00,
2013-09-19 23:59:00,66.6,61.5,29.88,South,185,0.0,0.0,84,0.00,,,0.00,meteohub,2013-09-20 06:59:00,